Location: Marne
(34.0056°N, 117.9064°W)
Time: 09:06:01
(UTC+00:00)

STARLINK-1102 - Visible Passes

Search period start: 06 June 2020 00:00
Search period end: 16 June 2020 00:00
Orbit: 548 x 551 km, 53.0° (Epoch: 06 June)

Date Brightness Start Highest point End Pass type
(mag) Time Alt. Az. Time Alt. Az. Time Alt. Az.
06 Jun 5.1 04:05:48 10° NNW 04:09:21 27° NE 04:12:10 14° E visible
06 Jun 5.1 05:45:09 10° WNW 05:47:49 30° W 05:47:49 30° W visible
07 Jun 4.7 04:00:06 10° NNW 04:03:56 35° NE 04:06:51 15° E visible
07 Jun 5.4 05:39:57 10° WNW 05:42:30 23° WSW 05:42:30 23° WSW visible
08 Jun 4.1 03:54:26 10° NW 03:58:28 48° NE 04:01:35 16° ESE visible
08 Jun 5.8 05:34:56 10° W 05:37:14 17° WSW 05:37:14 17° WSW visible
09 Jun 3.7 03:48:49 10° NW 03:52:56 69° NE 03:56:22 14° SE visible
09 Jun 6.1 05:30:28 10° W 05:32:01 12° WSW 05:32:01 12° WSW visible
10 Jun 3.6 03:43:14 10° NW 03:47:23 83° SW 03:51:12 12° SE visible
11 Jun 4.1 03:37:43 10° NW 03:41:47 57° SW 03:45:49 10° SSE visible
12 Jun 4.7 03:32:16 10° WNW 03:36:08 38° SW 03:39:58 10° SSE visible
13 Jun 5.4 03:26:57 10° WNW 03:30:27 27° SW 03:33:56 10° S visible
